Regional Weather Roundup
Issued by NWS Cleveland, OH

Home | Current Version | Previous Version | Graphics & Text | Print | Product List | Glossary On
Versions: 1 2 3 4 5 6 7 8 9 10 11 12 13 14 15 16 17 18 19 20 21 22 23 24 25 26 27 28 29 30 31 32 33 34 35 36 37 38 39 40 41 42 43 44 45 46 47 48 49 50
000
ASUS41 KCLE 290210
RWRCLE
OHIO REGIONAL WEATHER ROUNDUP
NATIONAL WEATHER SERVICE CLEVELAND, OH
1000 PM EDT THU AUG 28 2014

NOTE: "FAIR" INDICATES FEW OR NO CLOUDS BELOW 12,000 FEET WITH NO
SIGNIFICANT WEATHER AND/OR OBSTRUCTIONS TO VISIBILITY.

OHZ001>008-015>018-024>027-034-035-043-044-290300-
   NORTHWEST OHIO

CITY           SKY/WX    TMP DP  RH WIND       PRES   REMARKS
DEFIANCE       PTCLDY    67  57  70 E6        30.12R
FINDLAY        PTCLDY    65  56  72 E8        30.12S
TOLEDO EXPRESS PTCLDY    63  56  78 E6        30.13R
TOLEDO EXEC    PTCLDY    61  55  81 E6        30.14R
LIMA           CLEAR     65  59  81 E8        30.12S
$$

OHZ009>014-019>023-028>033-038-089-290300-
   NORTHEAST OHIO

CITY           SKY/WX    TMP DP  RH WIND       PRES   REMARKS
CLE-HOPKINS    MOCLDY    59  52  77 SW5       30.17R
CLE-LAKEFRONT  PTCLDY    66  49  54 CALM      30.14R
CUY CO. ARPT   PTCLDY    55  54  94 SE5       30.16R
LORAIN-ELYRIA  PTCLDY    59  53  80 CALM      30.17R
ASHTABULA      CLEAR     53  51  93 CALM      30.17R
AKRON-CANTON   PTCLDY    60  49  66 N6        30.16R
WOOSTER        PTCLDY    56  51  84 CALM      30.16R
MANSFIELD      PTCLDY    60  55  83 NE3       30.16R
YOUNGSTOWN     PTCLDY    58  51  78 NE6       30.15R
$$

OHZ042-051>053-060>062-070>072-077>081-290300-
  SOUTHWEST OHIO

CITY           SKY/WX    TMP DP  RH WIND       PRES   REMARKS
CINC-COVINGTON PTCLDY    76  61  59 E9        30.08R
CINC-LUNKEN    CLEAR     72  64  76 NE6       30.08R
HAMILTON       CLEAR     72  63  73 E6        30.09R
DAYTON         CLEAR     71  61  70 E7        30.11S
WRIGHT-PAT AFB CLEAR     70  62  75 E7        30.11R
DAYTON GENERAL CLEAR     71  63  75 E7        30.09S
WILMINGTON     CLEAR     68  61  78 E7        30.11R
$$

OHZ036-037-039>041-045>050-054>059-063>069-073>076-082>088-290300-
  CENTRAL AND SOUTHEAST OHIO

CITY           SKY/WX    TMP DP  RH WIND       PRES   REMARKS
COLUMBUS       PTCLDY    70  58  65 E3        30.12R
OSU AIRPORT    CLEAR     69  58  67 E3        30.12R
BOLTON FIELD   CLEAR     67  60  79 CALM      30.13R
RICKENBACK AFB CLEAR     68  57  66 E3        30.11R
NEWARK         PTCLDY    60  57  89 CALM      30.13R
MARION         PTCLDY    62  56  80 NE7       30.14R
LANCASTER      CLEAR     64  60  87 NE3       30.13R
ZANESVILLE     PTCLDY    63  57  81 CALM      30.13R
NEW PHILLY     PTCLDY    59  58  96 CALM      30.15R
$$


USA.gov is the U.S. government's official web portal to all federal, state and local government web resources and services.